K4MZ Weather Reports


time (UTC)temp
C
wind
direction
speed
KPH
gust
KPH
rain 1hr
cm
rain 24hr
cm
rain mn
cm
humidity
%
barometer
mb
20260508025525 8 346 0.0 1.6 0.00 0.25 0.13 92 1012.8
20260508024545 8 45 0.0 0.0 0.00 0.25 0.13 92 1012.7
20260508023606 8 103 1.6 3.2 0.00 0.25 0.13 92 1012.5
20260508022525 9 146 0.0 1.6 0.00 0.28 0.13 91 1012.5
20260508021526 9 75 0.0 0.0 0.00 0.28 0.13 91 1012.4
20260508020646 9 5 0.0 1.6 0.00 0.28 0.13 91 1012.3
20260508015546 10 94 0.0 1.6 0.00 0.28 0.13 91 1012.0
20260508014558 10 124 0.0 1.6 0.00 0.28 0.13 91 1011.8
20260508013518 10 1 0.0 1.6 0.00 0.28 0.13 90 1011.7
20260508012518 10 19 0.0 0.0 0.00 0.28 0.13 90 1011.6
20260508011518 10 101 0.0 1.6 0.00 0.28 0.13 89 1011.6
20260508010538 11 90 0.0 0.0 0.00 0.28 0.13 89 1011.6
20260508005518 11 96 1.6 3.2 0.00 0.28 0.13 89 1011.7
20260508004519 11 92 0.0 1.6 0.00 0.28 0.13 88 1011.7
20260508003538 11 109 0.0 1.6 0.00 0.28 0.13 87 1011.7
20260508002519 12 124 0.0 1.6 0.00 0.28 0.13 87 1011.6
20260508001519 12 92 0.0 1.6 0.00 0.28 0.13 86 1011.5
20260508000517 12 55 1.6 3.2 0.00 0.28 0.13 85 1011.3
20260507235600 13 58 1.6 3.2 0.00 0.28 0.13 84 1011.0
20260507234539 13 64 1.6 3.2 0.00 0.28 0.13 83 1010.9
20260507233557 13 121 0.0 3.2 0.00 0.28 0.13 83 1010.8
20260507232618 14 65 3.2 4.8 0.00 0.28 0.13 82 1010.7
20260507231520 15 52 1.6 4.8 0.00 0.28 0.13 82 1010.5
20260507230558 15 125 1.6 4.8 0.00 0.28 0.13 82 1010.4
20260507225517 15 113 1.6 3.2 0.00 0.28 0.13 83 1010.2
20260507224518 14 155 3.2 6.4 0.00 0.28 0.13 85 1010.3
20260507223517 13 85 1.6 6.4 0.00 0.28 0.13 87 1010.3
20260507222550 13 108 1.6 6.4 0.00 0.28 0.13 87 1010.7
20260507221550 13 123 1.6 3.2 0.00 0.28 0.13 88 1010.7
20260507220531 13 25 3.2 8.0 0.00 0.28 0.13 88 1010.7
20260507215531 13 104 1.6 3.2 0.00 0.28 0.13 89 1010.7
20260507214530 13 77 1.6 3.2 0.00 0.28 0.13 89 1010.7
20260507213611 12 80 1.6 3.2 0.00 0.28 0.13 90 1010.5
20260507212551 12 82 1.6 3.2 0.00 0.28 0.13 90 1010.4
20260507211516 12 104 3.2 4.8 0.00 0.28 0.13 90 1010.4
20260507210637 12 123 1.6 3.2 0.00 0.28 0.13 91 1010.4
20260507205552 12 356 1.6 4.8 0.00 0.28 0.13 91 1010.3
20260507204531 12 88 3.2 6.4 0.00 0.28 0.13 92 1010.2
20260507203632 12 63 1.6 8.0 0.00 0.28 0.13 92 1010.3
20260507202517 12 357 1.6 3.2 0.00 0.28 0.13 92 1010.6
20260507201537 12 78 3.2 6.4 0.00 0.28 0.13 92 1010.8
20260507200538 12 73 3.2 6.4 0.00 0.28 0.13 91 1010.6
20260507194612 12 113 1.6 4.8 0.00 0.28 0.13 91 1011.0
20260507193518 12 343 3.2 6.4 0.00 0.28 0.13 92 1011.0
20260507192659 12 42 3.2 4.8 0.00 0.28 0.13 92 1010.8
20260507191518 12 43 3.2 6.4 0.00 0.28 0.13 92 1011.0
20260507190518 12 322 3.2 6.4 0.00 0.28 0.13 92 1011.0
20260507185516 12 73 3.2 8.0 0.00 0.28 0.13 91 1010.9
20260507184516 12 12 1.6 4.8 0.00 0.28 0.13 91 1011.0
20260507183537 12 321 3.2 6.4 0.00 0.28 0.13 91 1011.1
20260507182539 12 352 3.2 4.8 0.00 0.28 0.13 91 1011.0
20260507181517 12 105 3.2 4.8 0.00 0.28 0.13 91 1011.2
20260507180538 12 73 3.2 6.4 0.00 0.28 0.10 91 1011.1
20260507175519 12 344 3.2 9.7 0.00 0.28 0.10 91 1011.1
20260507174539 12 14 3.2 8.0 0.00 0.28 0.10 92 1011.0
20260507173518 12 47 4.8 12.9 0.00 0.28 0.10 92 1010.9
20260507172558 12 46 3.2 6.4 0.00 0.28 0.10 92 1010.9
20260507171558 12 72 4.8 9.7 0.00 0.28 0.10 93 1010.6
20260507170538 12 58 4.8 12.9 0.00 0.28 0.10 93 1010.6
20260507165559 12 13 4.8 8.0 0.00 0.30 0.10 93 1010.9
20260507164619 12 95 4.8 8.0 0.00 0.30 0.10 93 1011.1
20260507163559 12 24 4.8 6.4 0.00 0.30 0.10 93 1011.3
20260507162519 12 67 4.8 9.7 0.00 0.30 0.10 93 1011.1
20260507161540 12 19 3.2 6.4 0.00 0.30 0.10 93 1011.1
20260507160700 12 30 1.6 4.8 0.00 0.30 0.10 93 1011.3
20260507155539 12 94 3.2 8.0 0.00 0.30 0.10 92 1011.3
20260507154519 13 46 4.8 11.3 0.00 0.30 0.10 92 1011.2
20260507153520 13 46 4.8 8.0 0.00 0.30 0.10 92 1011.2
20260507152520 13 13 3.2 9.7 0.00 0.30 0.10 92 1011.4
20260507151520 15 44 6.4 12.9 0.00 0.30 0.10 92 1011.0
20260507150600 15 358 4.8 11.3 0.00 0.30 0.10 93 1010.8
20260507145601 15 27 3.2 9.7 0.00 0.33 0.10 93 1010.5
20260507144520 16 44 4.8 9.7 0.00 0.36 0.10 93 1010.3
20260507143542 16 318 3.2 8.0 0.00 0.43 0.10 94 1010.1
20260507142520 16 323 3.2 6.4 0.00 0.46 0.10 94 1010.0
20260507141520 16 21 3.2 8.0 0.00 0.51 0.10 94 1010.1
20260507140541 16 92 3.2 9.7 0.00 0.51 0.10 95 1010.2
20260507135522 16 72 3.2 6.4 0.00 0.51 0.10 95 1010.3
20260507134521 16 329 4.8 9.7 0.00 0.53 0.10 95 1010.3
20260507133643 16 304 3.2 6.4 0.00 0.56 0.10 96 1010.7
20260507132521 16 340 1.6 4.8 0.00 0.56 0.10 96 1010.4
20260507131521 16 313 1.6 4.8 0.00 0.58 0.10 96 1010.8
20260507130521 17 81 1.6 4.8 0.00 0.58 0.10 96 1011.0
20260507125522 17 64 0.0 1.6 0.00 0.58 0.10 97 1011.0
20260507124522 17 325 0.0 0.0 0.00 0.58 0.10 97 1011.0
20260507123542 17 0.0 0.0 0.00 0.58 0.10 96 1010.8
20260507122602 17 0.0 0.0 0.00 0.58 0.10 96 1010.3
20260507121522 17 86 1.6 3.2 0.00 0.58 0.10 96 1010.6
20260507120543 17 121 0.0 1.6 0.00 0.58 0.10 96 1010.6
20260507115523 17 60 1.6 4.8 0.00 0.58 0.10 96 1010.6
20260507114623 17 35 1.6 3.2 0.00 0.58 0.10 96 1010.6
20260507113523 17 10 0.0 1.6 0.00 0.58 0.10 96 1010.4
20260507112523 17 108 1.6 1.6 0.00 0.58 0.10 96 1010.2
20260507111544 16 72 0.0 1.6 0.00 0.58 0.10 96 1010.3
20260507110523 16 91 1.6 3.2 0.00 0.58 0.10 96 1010.5
20260507105544 16 136 0.0 1.6 0.00 0.58 0.10 96 1010.5
20260507104524 16 143 1.6 3.2 0.00 0.58 0.10 96 1010.2
20260507103524 17 29 1.6 3.2 0.03 0.58 0.10 96 1010.2
20260507102645 17 83 0.0 1.6 0.03 0.58 0.10 96 1010.0
20260507101605 17 97 0.0 1.6 0.03 0.58 0.10 96 1009.9
20260507100605 17 123 0.0 0.0 0.03 0.58 0.10 96 1009.7
20260507095627 17 13 1.6 3.2 0.03 0.58 0.10 96 1009.2
20260507094525 16 78 1.6 4.8 0.03 0.58 0.10 96 1009.6
20260507093525 17 135 0.0 1.6 0.00 0.58 0.08 96 1009.8
20260507092525 17 109 1.6 1.6 0.00 0.58 0.08 96 1009.8
20260507091526 17 144 1.6 3.2 0.00 0.56 0.08 95 1010.5
20260507090526 17 359 1.6 3.2 0.00 0.56 0.08 95 1010.2
20260507085526 17 104 1.6 1.6 0.00 0.56 0.08 95 1009.9
20260507084546 17 101 0.0 1.6 0.00 0.56 0.08 95 1009.9
20260507083546 17 110 1.6 3.2 0.00 0.56 0.08 95 1010.2
20260507082546 17 0.0 0.0 0.00 0.56 0.08 95 1010.1
20260507081527 17 99 0.0 1.6 0.00 0.56 0.08 95 1009.8
20260507080607 17 103 1.6 3.2 0.00 0.56 0.08 95 1009.8
20260507075527 17 121 1.6 3.2 0.00 0.56 0.08 95 1010.0
20260507074528 17 112 0.0 1.6 0.00 0.56 0.08 95 1009.9
20260507073527 17 113 1.6 1.6 0.00 0.56 0.08 95 1009.9
20260507072547 17 54 0.0 1.6 0.00 0.56 0.08 94 1009.7
20260507071608 17 117 1.6 1.6 0.00 0.56 0.08 94 1009.9
20260507070628 17 86 0.0 1.6 0.00 0.56 0.08 94 1010.0
20260507065528 17 94 0.0 1.6 0.00 0.56 0.08 94 1009.7
20260507064528 17 116 1.6 4.8 0.00 0.56 0.08 94 1009.5
20260507063548 17 114 1.6 4.8 0.00 0.56 0.08 94 1009.8
20260507062528 17 101 3.2 4.8 0.00 0.56 0.08 94 1010.2
20260507061529 17 120 1.6 3.2 0.00 0.56 0.08 93 1010.7
20260507060529 17 119 3.2 3.2 0.00 0.56 0.08 93 1010.9
20260507055529 17 123 1.6 3.2 0.00 0.56 0.08 93 1011.1
20260507054650 17 119 1.6 4.8 0.00 0.56 0.08 93 1011.3
20260507053549 17 109 1.6 3.2 0.00 0.56 0.08 93 1011.4
20260507052529 18 104 1.6 3.2 0.00 0.56 0.08 92 1011.7
20260507051530 18 113 1.6 3.2 0.00 0.56 0.08 92 1011.8
20260507050530 18 126 0.0 1.6 0.00 0.56 0.08 92 1011.9
20260507045650 18 89 1.6 3.2 0.08 0.56 0.08 92 1011.6
20260507044630 18 348 0.0 1.6 0.13 0.56 0.08 91 1011.8
20260507043530 17 107 1.6 1.6 0.18 0.56 0.08 91 1011.8
20260507042537 18 0.0 0.0 0.18 0.56 0.08 91 1011.8
20260507041531 18 122 0.0 1.6 0.20 0.56 0.08 91 1011.3
20260507040531 18 74 3.2 8.0 0.20 0.56 0.08 91 1010.8
20260507035551 18 99 1.6 3.2 0.15 0.48 0.48 90 1012.1
20260507034518 18 103 1.6 4.8 0.10 0.43 0.43 89 1012.6
20260507033518 18 121 0.0 1.6 0.05 0.38 0.38 89 1012.6
20260507032538 18 105 0.0 1.6 0.05 0.38 0.38 88 1012.6
20260507031519 18 109 0.0 1.6 0.03 0.36 0.36 88 1012.4
20260507030518 18 98 0.0 1.6 0.03 0.36 0.36 87 1012.1